Track STARLINK-1202 now! 10-day predictions STARLINK-1202 is classified as:
1 45183U 20012F 22138.47849295 .00000835 00000-0 74977-4 0 9994 2 45183 53.0547 172.0115 0001704 63.8751 296.2413 15.06399872124493